This is the latest recevied weather packets stored in our database for station/object N6SPP. If no packets are shown the sender has not sent any weather packets the latest 1 day(s).
| Time | Temp. | Humidity | Pressure | Rain* | Wind** | Luminosity | Snow |
|---|---|---|---|---|---|---|---|
| 1778021377 | 17.22° C | 73% | 1017.4 hPa | 0 mm | 0 m/s | 138 W/m² | - |
| 1778021074 | 17.22° C | 72% | 1017.4 hPa | 0 mm | 1.34 m/s, 144° | 146 W/m² | - |
| 1778020771 | 17.22° C | 72% | 1017.4 hPa | 0 mm | 0.89 m/s, 137° | 156 W/m² | - |
| 1778020467 | 17.78° C | 71% | 1017.4 hPa | 0 mm | 0.89 m/s, 198° | 170 W/m² | - |
| 1778020164 | 17.78° C | 70% | 1017.4 hPa | 0 mm | 0.89 m/s, 202° | 202 W/m² | - |
| 1778019860 | 17.78° C | 71% | 1017.6 hPa | 0 mm | 0 m/s | 271 W/m² | - |
| 1778019556 | 17.78° C | 71% | 1017.5 hPa | 0 mm | 0.45 m/s, 202° | 288 W/m² | - |
| 1778019254 | 17.78° C | 71% | 1017.4 hPa | 0 mm | 1.79 m/s, 207° | 227 W/m² | - |
| 1778018951 | 17.78° C | 71% | 1017.5 hPa | 0 mm | 1.34 m/s, 199° | 231 W/m² | - |
| 1778018648 | 17.78° C | 70% | 1017.6 hPa | 0 mm | 1.79 m/s, 288° | 321 W/m² | - |
| 1778018345 | 17.78° C | 71% | 1017.3 hPa | 0 mm | 2.24 m/s, 220° | 309 W/m² | - |
| 1778018043 | 17.78° C | 71% | 1017.7 hPa | 0 mm | 0.89 m/s, 172° | 387 W/m² | - |
| 1778017741 | 17.78° C | 71% | 1017.7 hPa | 0 mm | 0.89 m/s, 186° | 346 W/m² | - |
| 1778017438 | 18.33° C | 70% | 1017.5 hPa | 0 mm | 0.89 m/s, 219° | 356 W/m² | - |
| 1778017135 | 17.78° C | 69% | 1017.7 hPa | 0 mm | 0.89 m/s, 184° | 455 W/m² | - |
| 1778016833 | 17.22° C | 71% | 1017.8 hPa | 0 mm | 0.45 m/s, 255° | 392 W/m² | - |
| 1778016529 | 16.67° C | 74% | 1017.8 hPa | 0 mm | 0.89 m/s, 210° | 336 W/m² | - |
| 1778016226 | 16.67° C | 74% | 1017.9 hPa | 0 mm | 1.34 m/s, 182° | 189 W/m² | - |
| 1778015922 | 16.67° C | 75% | 1017.7 hPa | 0 mm | 0.89 m/s, 114° | 169 W/m² | - |
| 1778015620 | 16.67° C | 74% | 1017.8 hPa | 0 mm | 0.89 m/s, 1° | 150 W/m² | - |
| 1778015316 | 16.67° C | 75% | 1017.7 hPa | 0 mm | 0.45 m/s, 179° | 151 W/m² | - |
| 1778015013 | 16.67° C | 73% | 1017.6 hPa | 0 mm | 1.79 m/s, 215° | 186 W/m² | - |
| 1778014710 | 17.22° C | 72% | 1017.8 hPa | 0 mm | 1.79 m/s, 195° | 170 W/m² | - |
| 1778014408 | 17.22° C | 72% | 1017.7 hPa | 0 mm | 0.45 m/s, 267° | 184 W/m² | - |
| 1778014105 | 17.22° C | 72% | 1017.9 hPa | 0 mm | 1.79 m/s, 179° | 199 W/m² | - |
* Rain latest hour (hover to see other rain measurements)
** Current wind speed in m/s (hover to see current wind gust speed)